Meteo pe oră la Dabrowa

Astăzi, 22 Aprilie, Joi

Timp Temperatura Precipitaţii Vânt Presiune Umiditate
00:00 +7°C° 0 mm 3 m/s 744 mmHg 82%
01:00 +7°C° 0 mm 3 m/s 744 mmHg 82%
02:00 +5°C° 0.1 mm 3 m/s 744 mmHg 87%
03:00 +5°C° 0.1 mm 3 m/s 744 mmHg 91%
04:00 +4°C° 0.1 mm 3 m/s 745 mmHg 95%
05:00 +4°C° 0.9 mm 4 m/s 745 mmHg 92%
06:00 +3°C° 0.9 mm 5 m/s 746 mmHg 90%
07:00 +3°C° 0 mm 5 m/s 746 mmHg 88%
08:00 +3°C° 0 mm 6 m/s 747 mmHg 78%
09:00 +4°C° 0 mm 6 m/s 747 mmHg 67%
10:00 +5°C° 0 mm 6 m/s 748 mmHg 57%
11:00 +7°C° 0 mm 6 m/s 748 mmHg 54%
12:00 +8°C° 0 mm 6 m/s 748 mmHg 50%
13:00 +9°C° 0 mm 6 m/s 748 mmHg 46%
14:00 +8°C° 0 mm 6 m/s 748 mmHg 48%
15:00 +8°C° 0 mm 6 m/s 748 mmHg 49%
16:00 +7°C° 0 mm 6 m/s 748 mmHg 51%
17:00 +6°C° 0 mm 5 m/s 748 mmHg 56%
18:00 +5°C° 0 mm 4 m/s 748 mmHg 62%
19:00 +4°C° 0 mm 3 m/s 748 mmHg 67%
20:00 +3°C° 0 mm 3 m/s 749 mmHg 71%
21:00 +3°C° 0 mm 3 m/s 749 mmHg 74%
22:00 +1°C° 0 mm 4 m/s 749 mmHg 78%
23:00 +1°C° 0 mm 4 m/s 749 mmHg 82%

Mâine, 23 Aprilie, Vineri

Timp Temperatura Precipitaţii Vânt Presiune Umiditate
00:00 +1°C° 0 mm 4 m/s 749 mmHg 86%
01:00 +1°C° 0 mm 4 m/s 750 mmHg 89%
02:00 +1°C° 0 mm 4 m/s 750 mmHg 90%
03:00 +1°C° 0 mm 4 m/s 750 mmHg 91%
04:00 0°C° 0 mm 4 m/s 750 mmHg 92%
05:00 +1°C° 0 mm 4 m/s 750 mmHg 90%
06:00 +2°C° 0 mm 5 m/s 751 mmHg 88%
07:00 +2°C° 0 mm 5 m/s 751 mmHg 85%
08:00 +3°C° 0.1 mm 5 m/s 751 mmHg 82%
09:00 +3°C° 0.1 mm 6 m/s 752 mmHg 79%
10:00 +3°C° 0.1 mm 6 m/s 752 mmHg 76%
11:00 +4°C° 0.1 mm 6 m/s 752 mmHg 73%
12:00 +5°C° 0.1 mm 6 m/s 752 mmHg 69%
13:00 +7°C° 0.1 mm 6 m/s 752 mmHg 65%
14:00 +5°C° 0 mm 6 m/s 752 mmHg 64%
15:00 +5°C° 0 mm 6 m/s 752 mmHg 62%
16:00 +5°C° 0 mm 6 m/s 752 mmHg 61%
17:00 +5°C° 0 mm 5 m/s 752 mmHg 66%
18:00 +4°C° 0 mm 3 m/s 752 mmHg 72%
19:00 +4°C° 0 mm 2 m/s 752 mmHg 77%
20:00 +4°C° 0 mm 2 m/s 752 mmHg 79%
21:00 +3°C° 0 mm 2 m/s 752 mmHg 81%
22:00 +3°C° 0 mm 2 m/s 752 mmHg 83%
23:00 +3°C° 0 mm 2 m/s 752 mmHg 83%

Poimâine, 24 Aprilie, Sâmbătă

Timp Temperatura Precipitaţii Vânt Presiune Umiditate
00:00 +2°C° 0 mm 3 m/s 752 mmHg 83%
01:00 +2°C° 0 mm 3 m/s 752 mmHg 82%
02:00 +2°C° 0 mm 3 m/s 752 mmHg 84%
03:00 +1°C° 0 mm 3 m/s 752 mmHg 86%
04:00 +2°C° 0 mm 2 m/s 752 mmHg 88%
05:00 +2°C° 0 mm 3 m/s 752 mmHg 82%
06:00 +3°C° 0 mm 3 m/s 753 mmHg 77%
07:00 +4°C° 0 mm 3 m/s 753 mmHg 71%
08:00 +7°C° 0 mm 3 m/s 753 mmHg 66%
09:00 +7°C° 0 mm 4 m/s 752 mmHg 61%
10:00 +8°C° 0 mm 4 m/s 752 mmHg 56%
11:00 +8°C° 0 mm 4 m/s 752 mmHg 56%
12:00 +10°C° 0 mm 4 m/s 752 mmHg 56%
13:00 +10°C° 0 mm 4 m/s 751 mmHg 56%
14:00 +10°C° 0 mm 4 m/s 751 mmHg 57%
15:00 +10°C° 0 mm 4 m/s 751 mmHg 57%
16:00 +10°C° 0 mm 4 m/s 751 mmHg 58%
17:00 +9°C° 0 mm 3 m/s 751 mmHg 62%
18:00 +8°C° 0 mm 2 m/s 751 mmHg 67%
19:00 +7°C° 0 mm 2 m/s 751 mmHg 71%
20:00 +6°C° 0 mm 2 m/s 751 mmHg 74%
21:00 +5°C° 0 mm 2 m/s 751 mmHg 77%
22:00 +4°C° 0 mm 2 m/s 751 mmHg 79%
23:00 +4°C° 0 mm 2 m/s 751 mmHg 81%

25 Aprilie, Duminică

Timp Temperatura Precipitaţii Vânt Presiune Umiditate
00:00 +3°C° 0 mm 2 m/s 751 mmHg 83%
01:00 +2°C° 0 mm 2 m/s 751 mmHg 86%
02:00 +2°C° 0 mm 2 m/s 751 mmHg 86%
03:00 +1°C° 0 mm 2 m/s 751 mmHg 86%
04:00 +1°C° 0 mm 2 m/s 752 mmHg 86%
05:00 +2°C° 0 mm 2 m/s 752 mmHg 78%
06:00 +3°C° 0 mm 2 m/s 752 mmHg 70%
07:00 +3°C° 0 mm 3 m/s 752 mmHg 62%
08:00 +4°C° 0 mm 3 m/s 752 mmHg 55%
09:00 +5°C° 0 mm 3 m/s 752 mmHg 48%
10:00 +7°C° 0 mm 4 m/s 752 mmHg 41%
11:00 +7°C° 0 mm 4 m/s 752 mmHg 39%
12:00 +8°C° 0 mm 4 m/s 752 mmHg 38%
13:00 +9°C° 0 mm 3 m/s 751 mmHg 36%
14:00 +8°C° 0 mm 4 m/s 751 mmHg 37%
15:00 +8°C° 0 mm 4 m/s 751 mmHg 38%
16:00 +8°C° 0 mm 4 m/s 751 mmHg 39%
17:00 +8°C° 0 mm 3 m/s 750 mmHg 45%
18:00 +6°C° 0 mm 2 m/s 750 mmHg 51%
19:00 +6°C° 0 mm 1 m/s 750 mmHg 57%
20:00 +5°C° 0 mm 1 m/s 750 mmHg 58%
21:00 +4°C° 0 mm 1 m/s 750 mmHg 59%
22:00 +4°C° 0 mm 1 m/s 750 mmHg 60%
23:00 +3°C° 0 mm 1 m/s 750 mmHg 61%

26 Aprilie, Luni

Timp Temperatura Precipitaţii Vânt Presiune Umiditate
00:00 +3°C° 0 mm 1 m/s 750 mmHg 62%
01:00 +3°C° 0 mm 1 m/s 749 mmHg 63%
02:00 +2°C° 0 mm 1 m/s 749 mmHg 63%
03:00 +1°C° 0 mm 2 m/s 749 mmHg 62%
04:00 +1°C° 0 mm 2 m/s 748 mmHg 62%
05:00 +2°C° 0 mm 2 m/s 748 mmHg 60%
06:00 +5°C° 0 mm 1 m/s 748 mmHg 57%
07:00 +6°C° 0 mm 1 m/s 748 mmHg 54%
08:00 +7°C° 0 mm 2 m/s 748 mmHg 50%
09:00 +8°C° 0 mm 2 m/s 748 mmHg 46%
10:00 +10°C° 0 mm 2 m/s 747 mmHg 42%
11:00 +10°C° 0 mm 2 m/s 747 mmHg 43%
12:00 +11°C° 0 mm 3 m/s 747 mmHg 44%
13:00 +11°C° 0 mm 3 m/s 746 mmHg 44%
14:00 +11°C° 0 mm 3 m/s 746 mmHg 48%
15:00 +11°C° 0 mm 4 m/s 746 mmHg 51%
16:00 +10°C° 0 mm 4 m/s 746 mmHg 54%
17:00 +9°C° 0 mm 3 m/s 746 mmHg 60%
18:00 +7°C° 0 mm 2 m/s 745 mmHg 66%
19:00 +6°C° 0 mm 2 m/s 745 mmHg 72%
20:00 +5°C° 0 mm 2 m/s 745 mmHg 73%
21:00 +4°C° 0 mm 2 m/s 746 mmHg 75%
22:00 +4°C° 0 mm 2 m/s 746 mmHg 76%
23:00 +3°C° 0 mm 2 m/s 745 mmHg 78%

27 Aprilie, Marţi

Timp Temperatura Precipitaţii Vânt Presiune Umiditate
00:00 +3°C° 0 mm 2 m/s 745 mmHg 79%
01:00 +2°C° 0 mm 2 m/s 745 mmHg 80%
02:00 +2°C° 0 mm 2 m/s 745 mmHg 80%
03:00 +2°C° 0 mm 2 m/s 744 mmHg 80%
04:00 +1°C° 0 mm 2 m/s 744 mmHg 81%
05:00 +2°C° 0 mm 3 m/s 744 mmHg 74%
06:00 +3°C° 0 mm 3 m/s 743 mmHg 68%
07:00 +5°C° 0 mm 3 m/s 743 mmHg 62%
08:00 +6°C° 0 mm 4 m/s 743 mmHg 57%
09:00 +7°C° 0 mm 5 m/s 743 mmHg 53%
10:00 +9°C° 0 mm 5 m/s 742 mmHg 48%
11:00 +10°C° 0 mm 5 m/s 742 mmHg 46%
12:00 +12°C° 0 mm 5 m/s 741 mmHg 44%
13:00 +13°C° 0 mm 5 m/s 740 mmHg 42%
14:00 +13°C° 0 mm 5 m/s 740 mmHg 46%
15:00 +12°C° 0 mm 5 m/s 739 mmHg 50%
16:00 +12°C° 0 mm 5 m/s 739 mmHg 54%
17:00 +11°C° 0 mm 4 m/s 739 mmHg 57%
18:00 +10°C° 0 mm 4 m/s 738 mmHg 60%
19:00 +8°C° 0 mm 4 m/s 738 mmHg 63%
20:00 +8°C° 0 mm 4 m/s 738 mmHg 67%
21:00 +7°C° 0 mm 4 m/s 737 mmHg 71%
22:00 +7°C° 0 mm 4 m/s 737 mmHg 75%
23:00 +8°C° 0 mm 3 m/s 737 mmHg 79%
Arată mai mult

Formular de consimțământ

Meteoprog și furnizorii noștri de servicii pot stoca și accesa date personale, precum cookies, identificatori de dispozitiv sau alte tehnologii similare pe dispozitivul dumneavoastră și procesa astfel de date pentru a personaliza conținutul și reclamele, dar și pentru a oferi caracteristici de social media și pentru a analiza traficul.

  • Stocarea și/sau accesarea informațiilor pe dispozitivul dumneavoastră

    Cookies, identificatori de dispozitiv sau alte informații pot fi stocate sau accesate pe dispozitiv în scopurile indicate mai sus.

  • Reclame și conținut personalizat, evaluarea reclamelor și a conținutului, informații despre audiențe și dezvoltarea produselor

    Reclamele și conținutul pot fi personalizate pe baza unui profil. Pot fi adăugate date suplimentare pentru a personaliza mai bine reclamele și conținutul. Performanța reclamelor și conținutului poate fi măsurată. Pot fi obținute informații despre utilizatorii care au văzut reclamele și conținutul. Aceste date pot fi utilizate pentru a dezvolta sau îmbunătăți experiența utilizatorilor, sistemele și software-ul.

Dând clic pe ‘Sunt de acord’, permiteți utilizarea cookie-urilor menționate, a identificatorilor de dispozitiv, balizelor web sau altor tehnologii similare. Setările pot fi modificate din browser-ul dispozitivului dumneavoastră.

În anumite scopuri, interesele legitime pot prima asupra consimțământului. Puteți citi mai multe informații în acest sens în Politica privind Confidențialitatea Datelor și Cookie.